Other Public Products
Issued by NWS Grand Forks, ND

Home | Current Version | Previous Version | Text Only | Print | Product List | Glossary Off
Versions: 1 2 3 4 5 6 7 8 9 10 11 12 13 14 15 16 17 18 19 20 21 22 23 24 25 26 27 28 29 30 31 32 33 34 35 36 37 38 39 40 41 42 43 44 45 46 47 48 49 50

000
FPUS83 KFGF 292331
OPUFGF
PRAIRIE TO PINES WEATHER ROUNDUP
NATIONAL WEATHER SERVICE EASTERN NORTH DAKOTA/GRAND FORKS ND
600 PM CDT FRI AUG 29 2014

 **SATELLITE DATA USED TO AUGMENT SKY COVER AT AUTOMATED STATIONS**
 *****  WEATHER ACROSS EASTERN NORTH DAKOTA  *****

CITY           SKY/WX    TMP DP  RH WIND       PRES   REMARKS
GRAND FORKS    CLOUDY    64  57  78 N20G31    29.80R
GRAND FORKS AF CLOUDY    63  63 100 N18       29.84R
GRAND CITY NWS   N/A     63 N/A N/A VRB14       N/A
BUXTON           N/A     67  65  94 NW15        N/A
DEVILS LAKE    CLOUDY    63  52  67 NE14      29.89S
FARGO          CLOUDY    75  65  70 MISG      29.76R
WAHPETON ARPT  PTCLDY    73  63  68 N3        29.77R
$$

 *****  WEATHER ACROSS CENTRAL AND WESTERN NORTH DAKOTA  *****

CITY           SKY/WX    TMP DP  RH WIND       PRES   REMARKS
JAMESTOWN      CLOUDY    64  57  78 N18G25    29.86R
BISMARCK       CLOUDY    69  57  65 N13       29.93R
MINOT          PTSUNNY   67  49  52 N9        29.94S
MINOT AFB      PTSUNNY   68  50  51 N10       29.94S
GARRISON         N/A     69  51  52 NE12G18   29.95R
WILLISTON      MOSUNNY   71  47  42 CALM      29.96F
DICKINSON      MOSUNNY   69  54  58 NE7       29.96F
HETTINGER      SUNNY     71  53  52 N12       29.98S
$$

 *****  OTHER OBSERVATIONS NORTHEAST NORTH DAKOTA  *****

CITY           SKY/WX    TMP DP  RH WIND       PRES   REMARKS
WALHALLA         N/A     61  61 100 N8        29.89R
LANGDON        CLOUDY    63  55  77 N16       29.90R
CAVALIER       LGT RAIN  63  59  88 N15G23    29.87R
GRAFTON        CLOUDY    59  55  88 N16G26    29.85R
CANDO          MOCLDY    64  54  68 N13G20    29.92R
FORT TOTTEN    NOT AVBL
ROLLA          FAIR      63  50  63 N16G22    29.95R
RUGBY          FAIR      66  54  63 N14       29.93R
 ***** THE ABOVE OBSERVATIONS ARE NON NWS ARE NOT QUALITY
        CONTROLLED AND MAY MIS-REPORT RAIN FOR SNOW...
$$

 *****  OTHER OBSERVATIONS SOUTHEAST NORTH DAKOTA *****

CITY           SKY/WX    TMP DP  RH WIND       PRES   REMARKS
COOPERSTOWN    NOT AVBL
VALLEY CITY    CLOUDY    64  64 100 N21G26    29.83R
OAKES            N/A     72  66  83 N18G25    29.81R
GWINNER        MOCLDY    75  66  73 NW17      29.80R
SHEYENNE NWR     N/A     78  64  60 N7        29.95S
BUFFALO          N/A     66  62  87 CALM        N/A
WYNDMERE       NOT AVBL
 ***** THE ABOVE OBSERVATIONS ARE NON NWS ARE NOT QUALITY
       CONTROLLED AND MAY MIS-REPORT RAIN FOR SNOW...
$$

  *****  WEATHER ACROSS NORTHERN MINNESOTA  *****

CITY           SKY/WX    TMP DP  RH WIND       PRES   REMARKS
FLAG ISLAND    DRIZZLE   63  55  77 N20       29.80S
WARROAD        CLOUDY    63  59  88 N16       29.81R
ROSEAU         PTSUNNY   61  55  82 N14       29.82R
HALLOCK        CLOUDY    61  57  88 N13       29.84R
THF RVR FALLS  PTSUNNY   70  63  78 N10       29.78S
HALSTAD          N/A     73  64  75 NW3         N/A
FOSSTON        CLOUDY    66  63  88 CALM      29.79S
BAUDETTE       CLOUDY    66  64  93 NW12      29.77R
WASKISH        PTSUNNY   70  66  88 CALM      29.76S
CROOKSTON      CLOUDY    66  63  88 N16G22    29.79R
$$
  *****  WEATHER ACROSS CENTRAL AND WEST MINNESOTA  *****

CITY           SKY/WX    TMP DP  RH WIND       PRES   REMARKS
BEMIDJI        CLOUDY    71  65  81 NW9       29.77R
PARK RAPIDS    CLOUDY    73  65  75 W7        29.77S
WADENA         CLOUDY    70  64  83 W3        29.77S
DETROIT LAKES  CLOUDY    68  64  88 NW6       29.79F
MOORHEAD       CLOUDY    72  70  94 CALM      29.77S
FERGUS FALLS   CLOUDY    70  64  83 NE3       29.77S
ELBOW LAKE     CLOUDY    69  66  90 NW7       29.77F
MORRIS MN      PTSUNNY   73  66  78 N9        29.76F
STAPLES        CLOUDY    70  64  83 NW5       29.77S
WHEATON        MOSUNNY   72  64  78 N5        29.78S
$$
  *****  WEATHER ELSEWHERE ACROSS MINNESOTA  *****

CITY           SKY/WX    TMP DP  RH WIND       PRES   REMARKS
DULUTH         LGT RAIN  64  61  90 SE5       29.76S FOG
INTRNTL FALLS  CLOUDY    69  62  78 CALM      29.75S
ELY            CLOUDY    63  59  88 CALM      29.77S
CLOQUET        CLOUDY    64  63  94 E3        29.77R
BRAINERD       CLOUDY    69  65  86 NW3       29.77R
HIBBING        CLOUDY    67  62  84 N3        29.77R
ALEXANDRIA     CLOUDY    71  66  84 NW9       29.79S
SAINT CLOUD    CLOUDY    73  68  84 NW5       29.75R
MINNEAPOLIS    LGT RAIN  70  68  93 NW6       29.74R
$$

  *****  WEATHER ACROSS SOUTH DAKOTA  *****

CITY           SKY/WX    TMP DP  RH WIND       PRES   REMARKS
SIOUX FALLS    CLOUDY    70  65  84 CALM      29.77S
BROOKINGS      NOT AVBL
WATERTOWN      PTSUNNY   77  65  66 NW9       29.78F
HURON          PTSUNNY   74  69  85 N10       29.78R
SISSETON         N/A     77  66  68 N10       29.76S
ABERDEEN       MOSUNNY   75  63  66 N18       29.80R
MITCHELL       MOSUNNY   82  67  60 NW5       29.77F
PIERRE         PTSUNNY   73  57  57 NW17G25   29.86S
MOBRIDGE       PTSUNNY   72  61  68 N16       29.88R
RAPID CITY     SUNNY     79  53  40 N14       29.97F
$$

  *****  SOME WEATHER IN NEARBY STATES *****

CITY           SKY/WX    TMP DP  RH WIND       PRES   REMARKS
GLASGOW MT     SUNNY     71  51  49 S9        29.94F
GREAT FALLS MT SUNNY     81  38  21 S14       29.86F
CHEYENNE WY    PTSUNNY   70  46  42 NE12      30.12S
SCOTTSBLUFF NE PTSUNNY   82  53  36 E8        30.00S
OMAHA NE       LGT RAIN  70  67  90 SE5       29.78F
DES MOINES IA  LGT RAIN  72  67  84 SW7       29.78F
DAVENPORT IA   MOSUNNY   82  70  66 S10       29.82F
CHICAGO IL     PTSUNNY   84  68  58 S16       29.88S
EAU CLAIRE WI  CLOUDY    72  70  93 SE8       29.75F
LA CROSSE WI   PTSUNNY   78  64  61 W13G23    29.76R
$$

  *****  SOME NATIONAL WEATHER *****

CITY           SKY/WX    TMP DP  RH WIND       PRES   REMARKS
LA GUARDIA NY  MOCLDY    72  53  51 S14       30.19R
RALEIGH NC     PTCLDY    80  71  74 E8        30.12F
ATLANTA GA     MOSUNNY   90  56  31 SE6       30.04F
NEW ORLEANS LA CLOUDY    80  75  84 SE8       29.95F
OKLAHOMA CITY  MOSUNNY   84  65  52 SW16      29.88S
ALBUQUERQUE NM MOSUNNY   83  39  21 SW9       30.09F
SALT LAKE CITY PTSUNNY   87  39  18 S5        29.98F
LOS ANGELES CA MOSUNNY   74  64  71 W14       29.83F
BOISE ID       SUNNY     90  41  18 N6        29.84F
SEATTLE WA     CLOUDY    70  54  56 S12       29.98F
$$

*** WEATHER ACROSS MANITOBA...SASKATCHEWAN AND ONTARIO ***
                ***ONTARIO***

CITY           SKY/WX    TMP DP  RH WIND       PRES   REMARKS
GERALDTON      LGT RAIN  57  57 100 S5        29.81F FOG
THUNDER BAY    LGT RAIN  59  59 100 E3        29.77S
SIOUX LOOKOUT  SHOWER    61  59  94 N14G23    29.78R
TORONTO        MOCLDY    68  54  60 SE12      30.11F
BIG TROUT LK   PTSUNNY   63  55  77 NW5       29.75S
PICKLE LAKE    LGT RAIN  57  55  94 N6        29.78R
DRYDEN         RAIN      57  55  94 N10G23    29.79R
KENORA         PTSUNNY   61  57  88 N7G17     29.82R
$$
                *** MANITOBA***

CITY           SKY/WX    TMP DP  RH WIND       PRES   REMARKS
BRANDON        MOSUNNY   68  48  49 N10       29.93F
DAUPHIN        SUNNY     64  48  55 E9        29.95R
ISLAND LAKE    PTSUNNY   59  48  67 NW6       29.88R
PILOT MOUND      N/A     63  52  67 N13G18      N/A
THE PAS        MOSUNNY   64  39  39 NW12      29.93S
THOMPSON       CLOUDY    57  43  58 W6        29.90R
WINNIPEG       PTSUNNY   64  55  72 N14G21    29.88S
LYNN LAKE      CLOUDY    55  39  54 MISG      29.91S
CHURCHILL      PTSUNNY   57  39  51 W16G24    29.73S
GILLAM         PTSUNNY   55  43  62 NW18      29.85S
$$
                ***SASKATCHEWAN***

CITY           SKY/WX    TMP DP  RH WIND       PRES   REMARKS
ESTEVAN        MOSUNNY   68  46  45 N3        29.97S
KINDERSLEY     PTSUNNY   70  46  43 SE15G21   29.85F
LLOYDMINSTER   CLOUDY    66  43  42 S14G21    29.82F
PRINCE ALBERT  PTSUNNY   64  43  45 S6        29.93F
REGINA         MOSUNNY   68  45  42 NW3       29.97S


USA.gov is the U.S. government's official web portal to all federal, state and local government web resources and services.